Location: Ku?niki
(51.4449°N, 17.8974°E)
Time: 10:47:14
(UTC+00:00)

POLYITAN 1 - Pass Details

Date: 30 June 2022
Orbit: 586 x 604 km, 98.0° (Epoch: 10 August)

Event Time Altitude Azimuth Distance (km) Brightness Sun altitude
Rises 23:39:06 0° 26° (NNE) 2,860 ? -14.7°
Reaches altitude 10° 23:41:46 10° 43° (NE) 1,955 ? -14.6°
Maximum altitude 23:44:56 20° 92° (E) 1,411 ? -14.5°
Drops below altitude 10° 23:48:04 10° 140° (SE) 1,949 ? -14.4°
Enters shadow 23:48:10 10° 141° (SE) 1,980 ? -14.4°
